LPE2007 SPJC-SPZO

Flight info

Callsign LPE2007
Flight time 0h 51m
Altitude 33000
Route PAKOL DCT POVLO DCT DARKI
Aircraft A320/M-SDE3FGHIRWY/LB1

Departure

Time 2026-04-22 16:04
Airport Jorge Chávez International Airport (SPJC)

Arrival

Time 2026-04-22 16:55
Airport Alejandro Velasco Astete International Airport (SPZO)
Time Latitude Longitude Altitude Speed Heading
2026-04-22 15:50 -12.02796 -77.11613 83 ft 0 kts 184°
2026-04-22 15:50 -12.02798 -77.11614 82 ft 0 kts 184°
2026-04-22 15:55 -12.02775 -77.11613 84 ft 4 kts 184°
2026-04-22 15:55 -12.02748 -77.11611 84 ft 4 kts 184°
2026-04-22 15:56 -12.02721 -77.11609 83 ft 4 kts 184°
2026-04-22 15:56 -12.02708 -77.11608 80 ft 0 kts 184°
2026-04-22 15:59 -12.02708 -77.11586 84 ft 5 kts 69°
2026-04-22 15:59 -12.02696 -77.11557 83 ft 4 kts 63°
2026-04-22 15:59 -12.02682 -77.11531 85 ft 4 kts 60°
2026-04-22 15:59 -12.02668 -77.11505 84 ft 9 kts 61°
2026-04-22 16:00 -12.02649 -77.11424 82 ft 11 kts 68°
2026-04-22 16:00 -12.02565 -77.11422 86 ft 17 kts 334°
2026-04-22 16:00 -12.02460 -77.11474 81 ft 17 kts 334°
2026-04-22 16:00 -12.02350 -77.11528 76 ft 17 kts 334°
2026-04-22 16:01 -12.02213 -77.11596 70 ft 27 kts 334°
2026-04-22 16:01 -12.02032 -77.11686 66 ft 30 kts 335°
2026-04-22 16:01 -12.01838 -77.11782 64 ft 32 kts 334°
2026-04-22 16:01 -12.01637 -77.11882 61 ft 32 kts 333°
2026-04-22 16:02 -12.01432 -77.11986 54 ft 33 kts 334°
2026-04-22 16:02 -12.01246 -77.12119 53 ft 32 kts 307°
2026-04-22 16:02 -12.01066 -77.12234 53 ft 31 kts 334°
2026-04-22 16:02 -12.00895 -77.12312 51 ft 15 kts 344°
2026-04-22 16:03 -12.00824 -77.12239 52 ft 22 kts 64°
2026-04-22 16:03 -12.00812 -77.12113 50 ft 17 kts 143°
2026-04-22 16:03 -12.01029 -77.12004 56 ft 67 kts 154°
2026-04-22 16:03 -12.01685 -77.11681 61 ft 143 kts 155°
2026-04-22 16:04 -12.02743 -77.11169 314 ft 183 kts 159°
2026-04-22 16:04 -12.03915 -77.10607 1221 ft 186 kts 157°
2026-04-22 16:04 -12.05137 -77.10003 1956 ft 206 kts 155°
2026-04-22 16:04 -12.06527 -77.09314 2510 ft 230 kts 154°
2026-04-22 16:05 -12.08044 -77.08559 2904 ft 254 kts 154°
2026-04-22 16:05 -12.09642 -77.07762 3646 ft 261 kts 154°
2026-04-22 16:05 -12.11280 -77.06948 4529 ft 263 kts 154°
2026-04-22 16:05 -12.12932 -77.06131 5358 ft 266 kts 154°
2026-04-22 16:06 -12.14621 -77.05298 5845 ft 273 kts 155°
2026-04-22 16:06 -12.16413 -77.04415 6008 ft 299 kts 155°
2026-04-22 16:06 -12.18361 -77.03455 6227 ft 323 kts 155°
2026-04-22 16:06 -12.20461 -77.02415 6401 ft 347 kts 153°
2026-04-22 16:07 -12.22557 -77.01050 6535 ft 368 kts 142°
2026-04-22 16:07 -12.24415 -76.99201 6973 ft 378 kts 131°
2026-04-22 16:07 -12.25913 -76.96976 7535 ft 383 kts 120°
2026-04-22 16:07 -12.27113 -76.94526 8137 ft 388 kts 116°
2026-04-22 16:08 -12.28314 -76.92040 8761 ft 392 kts 116°
2026-04-22 16:08 -12.29529 -76.89526 9367 ft 396 kts 116°
2026-04-22 16:08 -12.30757 -76.86983 9933 ft 401 kts 116°
2026-04-22 16:08 -12.31999 -76.84414 10514 ft 404 kts 116°
2026-04-22 16:09 -12.33246 -76.81835 11105 ft 406 kts 116°
2026-04-22 16:09 -12.34500 -76.79238 11684 ft 409 kts 115°
2026-04-22 16:09 -12.35759 -76.76622 12210 ft 412 kts 116°
2026-04-22 16:09 -12.37027 -76.73983 12709 ft 415 kts 115°
2026-04-22 16:10 -12.38305 -76.71324 13197 ft 418 kts 115°
2026-04-22 16:10 -12.39595 -76.68643 13674 ft 421 kts 115°
2026-04-22 16:10 -12.40890 -76.65946 14122 ft 424 kts 115°
2026-04-22 16:10 -12.42196 -76.63226 14579 ft 427 kts 115°
2026-04-22 16:11 -12.43517 -76.60490 14972 ft 430 kts 115°
2026-04-22 16:11 -12.44853 -76.57739 15346 ft 433 kts 115°
2026-04-22 16:11 -12.46200 -76.54972 15726 ft 436 kts 115°
2026-04-22 16:11 -12.47538 -76.52218 16109 ft 439 kts 115°
2026-04-22 16:12 -12.48898 -76.49412 16545 ft 441 kts 115°
2026-04-22 16:12 -12.50263 -76.46592 16930 ft 443 kts 116°
2026-04-22 16:12 -12.51634 -76.43760 17323 ft 446 kts 115°
2026-04-22 16:12 -12.53014 -76.40909 17665 ft 448 kts 115°
2026-04-22 16:13 -12.54397 -76.38054 18043 ft 450 kts 115°
2026-04-22 16:13 -12.55790 -76.35173 18443 ft 452 kts 115°
2026-04-22 16:13 -12.57187 -76.32277 18720 ft 455 kts 115°
2026-04-22 16:13 -12.58591 -76.29368 19009 ft 457 kts 115°
2026-04-22 16:14 -12.60004 -76.26445 19318 ft 459 kts 115°
2026-04-22 16:14 -12.61422 -76.23514 19604 ft 461 kts 115°
2026-04-22 16:14 -12.62848 -76.20566 19919 ft 463 kts 116°
2026-04-22 16:14 -12.64281 -76.17602 20195 ft 465 kts 115°
2026-04-22 16:15 -12.65716 -76.14633 20471 ft 467 kts 115°
2026-04-22 16:15 -12.67158 -76.11643 20807 ft 468 kts 115°
2026-04-22 16:15 -12.68598 -76.08650 21108 ft 469 kts 115°
2026-04-22 16:15 -12.70040 -76.05646 21405 ft 471 kts 115°
2026-04-22 16:16 -12.71485 -76.02639 21672 ft 472 kts 116°
2026-04-22 16:16 -12.72942 -75.99613 21924 ft 475 kts 115°
2026-04-22 16:16 -12.74303 -75.96529 22157 ft 476 kts 110°
2026-04-22 16:16 -12.75245 -75.93281 22391 ft 477 kts 103°
2026-04-22 16:17 -12.76019 -75.89967 22571 ft 480 kts 102°
2026-04-22 16:17 -12.76800 -75.86631 22732 ft 483 kts 103°
2026-04-22 16:17 -12.77588 -75.83279 22933 ft 485 kts 103°
2026-04-22 16:17 -12.78380 -75.79915 23116 ft 488 kts 103°
2026-04-22 16:18 -12.79172 -75.76536 23375 ft 488 kts 103°
2026-04-22 16:18 -12.79964 -75.73156 23620 ft 489 kts 103°
2026-04-22 16:18 -12.80747 -75.69806 23803 ft 490 kts 103°
2026-04-22 16:18 -12.81539 -75.66411 23991 ft 491 kts 103°
2026-04-22 16:19 -12.82331 -75.62997 24164 ft 493 kts 103°
2026-04-22 16:19 -12.83125 -75.59579 24391 ft 493 kts 103°
2026-04-22 16:19 -12.83920 -75.56167 24651 ft 492 kts 103°
2026-04-22 16:19 -12.84719 -75.52756 24878 ft 493 kts 103°
2026-04-22 16:20 -12.85519 -75.49344 25115 ft 493 kts 103°
2026-04-22 16:20 -12.86317 -75.45934 25384 ft 492 kts 103°
2026-04-22 16:20 -12.87115 -75.42524 25613 ft 493 kts 103°
2026-04-22 16:20 -12.87911 -75.39112 25906 ft 491 kts 103°
2026-04-22 16:21 -12.88701 -75.35717 26218 ft 490 kts 102°
2026-04-22 16:21 -12.89491 -75.32317 26485 ft 491 kts 103°
2026-04-22 16:21 -12.90280 -75.28912 26762 ft 490 kts 103°
2026-04-22 16:21 -12.91067 -75.25519 27039 ft 490 kts 103°
2026-04-22 16:22 -12.92648 -75.18704 27626 ft 490 kts 103°
2026-04-22 16:22 -12.93436 -75.15308 27900 ft 490 kts 103°
2026-04-22 16:22 -12.94221 -75.11910 28195 ft 490 kts 103°
2026-04-22 16:23 -12.95788 -75.05123 28851 ft 489 kts 103°
2026-04-22 16:23 -12.96571 -75.01743 29252 ft 486 kts 103°
2026-04-22 16:23 -12.97351 -74.98375 29605 ft 485 kts 103°
2026-04-22 16:24 -12.98125 -74.95012 29934 ft 484 kts 103°
2026-04-22 16:24 -12.99663 -74.88295 30576 ft 483 kts 103°
2026-04-22 16:24 -13.00432 -74.84943 30866 ft 483 kts 103°
2026-04-22 16:25 -13.01195 -74.81641 31168 ft 482 kts 103°
2026-04-22 16:25 -13.02741 -74.74966 31772 ft 480 kts 102°
2026-04-22 16:25 -13.03506 -74.71644 32080 ft 479 kts 102°
2026-04-22 16:26 -13.04270 -74.68314 32336 ft 480 kts 102°
2026-04-22 16:26 -13.05032 -74.64988 32603 ft 480 kts 102°
2026-04-22 16:26 -13.05793 -74.61665 32896 ft 479 kts 102°
2026-04-22 16:26 -13.06556 -74.58339 33202 ft 478 kts 102°
2026-04-22 16:27 -13.07317 -74.55021 33335 ft 479 kts 102°
2026-04-22 16:27 -13.08084 -74.51677 33363 ft 484 kts 102°
2026-04-22 16:27 -13.09628 -74.44942 33365 ft 486 kts 102°
2026-04-22 16:28 -13.11178 -74.38175 33373 ft 487 kts 102°
2026-04-22 16:28 -13.12716 -74.31427 33381 ft 484 kts 102°
2026-04-22 16:29 -13.14247 -74.24708 33382 ft 483 kts 102°
2026-04-22 16:29 -13.15779 -74.17991 33383 ft 483 kts 102°
2026-04-22 16:30 -13.17303 -74.11281 33378 ft 483 kts 102°
2026-04-22 16:30 -13.18829 -74.04563 33314 ft 483 kts 102°
2026-04-22 16:31 -13.20354 -73.97850 33318 ft 483 kts 102°
2026-04-22 16:31 -13.21871 -73.91146 33319 ft 482 kts 102°
2026-04-22 16:32 -13.23375 -73.84497 33314 ft 481 kts 102°
2026-04-22 16:32 -13.24883 -73.77814 33282 ft 481 kts 102°
2026-04-22 16:33 -13.26390 -73.71134 33273 ft 480 kts 101°
2026-04-22 16:33 -13.27898 -73.64456 33242 ft 480 kts 101°
2026-04-22 16:34 -13.29403 -73.57777 33249 ft 480 kts 101°
2026-04-22 16:34 -13.30898 -73.51108 33239 ft 480 kts 101°
2026-04-22 16:35 -13.32397 -73.44430 33241 ft 480 kts 101°
2026-04-22 16:35 -13.33895 -73.37754 33241 ft 481 kts 101°
2026-04-22 16:36 -13.35392 -73.31063 33225 ft 481 kts 101°
2026-04-22 16:36 -13.36881 -73.24419 33234 ft 480 kts 101°
2026-04-22 16:37 -13.38371 -73.17731 33225 ft 481 kts 101°
2026-04-22 16:37 -13.39860 -73.11044 33226 ft 480 kts 101°
2026-04-22 16:38 -13.41351 -73.04356 33232 ft 481 kts 101°
2026-04-22 16:38 -13.42840 -72.97669 33232 ft 481 kts 101°
2026-04-22 16:39 -13.44325 -72.90976 33230 ft 480 kts 101°
2026-04-22 16:39 -13.44950 -72.84200 33235 ft 475 kts 84°
2026-04-22 16:40 -13.44596 -72.78588 33243 ft 472 kts 84°
2026-04-22 16:41 -13.43939 -72.68549 33241 ft 467 kts 84°
2026-04-22 16:41 -13.43499 -72.61896 33220 ft 466 kts 84°
2026-04-22 16:42 -13.43068 -72.55261 33219 ft 465 kts 84°
2026-04-22 16:42 -13.42580 -72.48625 33197 ft 469 kts 82°
2026-04-22 16:43 -13.41872 -72.41950 33197 ft 471 kts 81°
2026-04-22 16:43 -13.41085 -72.35271 33180 ft 471 kts 81°
2026-04-22 16:44 -13.40439 -72.28575 33077 ft 469 kts 84°
2026-04-22 16:44 -13.40280 -72.25274 32816 ft 458 kts 85°
2026-04-22 16:44 -13.40155 -72.22051 32573 ft 446 kts 85°
2026-04-22 16:44 -13.40042 -72.18914 32369 ft 429 kts 85°
2026-04-22 16:45 -13.39927 -72.15878 32176 ft 422 kts 85°
2026-04-22 16:45 -13.39801 -72.12889 31790 ft 417 kts 85°
2026-04-22 16:45 -13.39663 -72.09924 31348 ft 414 kts 85°
2026-04-22 16:45 -13.39519 -72.06981 30920 ft 411 kts 85°
2026-04-22 16:46 -13.39372 -72.04063 30373 ft 406 kts 85°
2026-04-22 16:46 -13.39227 -72.01216 29519 ft 403 kts 85°
2026-04-22 16:46 -13.39083 -71.98361 28692 ft 398 kts 85°
2026-04-22 16:46 -13.38942 -71.95532 27902 ft 394 kts 85°
2026-04-22 16:47 -13.38805 -71.92736 27116 ft 390 kts 85°
2026-04-22 16:47 -13.38672 -71.89966 26356 ft 386 kts 85°
2026-04-22 16:47 -13.38542 -71.87226 25619 ft 383 kts 85°
2026-04-22 16:47 -13.38411 -71.84513 24887 ft 379 kts 85°
2026-04-22 16:48 -13.38279 -71.81826 24270 ft 372 kts 85°
2026-04-22 16:48 -13.38152 -71.79243 24073 ft 353 kts 85°
2026-04-22 16:48 -13.38031 -71.76765 23578 ft 344 kts 85°
2026-04-22 16:48 -13.38135 -71.74337 22979 ft 340 kts 99°
2026-04-22 16:49 -13.38834 -71.72034 22369 ft 337 kts 114°
2026-04-22 16:49 -13.40062 -71.69995 21781 ft 335 kts 129°
2026-04-22 16:49 -13.41722 -71.68345 21211 ft 332 kts 144°
2026-04-22 16:49 -13.43714 -71.67182 20671 ft 328 kts 159°
2026-04-22 16:50 -13.45890 -71.66567 20165 ft 323 kts 173°
2026-04-22 16:50 -13.48115 -71.66509 19647 ft 318 kts 187°
2026-04-22 16:50 -13.50257 -71.66997 19142 ft 314 kts 201°
2026-04-22 16:50 -13.52213 -71.67984 18512 ft 315 kts 214°
2026-04-22 16:51 -13.53921 -71.69389 17907 ft 312 kts 221°
2026-04-22 16:51 -13.55559 -71.70804 17211 ft 304 kts 220°
2026-04-22 16:51 -13.57048 -71.72300 16443 ft 296 kts 234°
2026-04-22 16:51 -13.58042 -71.74114 15716 ft 287 kts 252°
2026-04-22 16:52 -13.58453 -71.76081 15043 ft 279 kts 269°
2026-04-22 16:52 -13.58301 -71.78035 14404 ft 272 kts 285°
2026-04-22 16:52 -13.57687 -71.79845 13874 ft 266 kts 293°
2026-04-22 16:52 -13.56999 -71.81566 13433 ft 262 kts 293°
2026-04-22 16:53 -13.56357 -71.83301 12695 ft 254 kts 290°
2026-04-22 16:53 -13.55787 -71.84985 12367 ft 246 kts 292°
2026-04-22 16:53 -13.55090 -71.86501 12029 ft 225 kts 301°
2026-04-22 16:53 -13.54372 -71.87838 11656 ft 205 kts 293°
2026-04-22 16:54 -13.54045 -71.89196 11281 ft 188 kts 277°
2026-04-22 16:54 -13.53914 -71.90480 11022 ft 175 kts 277°
2026-04-22 16:54 -13.53780 -71.91721 10825 ft 172 kts 275°
2026-04-22 16:54 -13.53662 -71.92929 10760 ft 162 kts 277°
2026-04-22 16:55 -13.53568 -71.93921 10804 ft 104 kts 276°
2026-04-22 16:55 -13.53529 -71.94317 10815 ft 8 kts 262°
2026-04-22 16:55 -13.53575 -71.94343 10814 ft 8 kts 184°
2026-04-22 16:55 -13.53617 -71.94347 10815 ft 0 kts 185°
2026-04-22 16:57 -13.53625 -71.94348 10815 ft 6 kts 185°
2026-04-22 16:57 -13.53660 -71.94373 10816 ft 6 kts 240°
2026-04-22 16:58 -13.53665 -71.94401 10817 ft 6 kts 265°
2026-04-22 16:58 -13.53680 -71.94446 10817 ft 4 kts 188°
2026-04-22 16:58 -13.53702 -71.94434 10817 ft 5 kts 148°
2026-04-22 16:58 -13.53725 -71.94419 10816 ft 3 kts 146°
2026-04-22 16:59 -13.53733 -71.94414 10817 ft 0 kts 146°